Location: Capvern
(43.1036°N, 0.3160°E)
Time: 10:31:03
(UTC+00:00)

Tiangong - Visible Passes

Search period start: 20 January 2022 00:00
Search period end: 30 January 2022 00:00
Orbit: 383 x 386 km, 41.5° (Epoch: 19 January)

Date Brightness Start Highest point End Pass type
(mag) Time Alt. Az. Time Alt. Az. Time Alt. Az.
26 Jan 4.0 19:20:55 10° SW 19:21:27 13° SSW 19:21:27 13° SSW visible
27 Jan 3.0 18:21:49 10° SSW 18:24:02 18° SSE 18:24:42 17° SE visible
28 Jan 2.4 18:57:45 10° SW 19:00:05 33° SSW 19:00:05 33° SSW visible
29 Jan 2.5 17:58:17 10° SW 18:01:01 27° SSE 18:03:11 13° ESE visible
29 Jan 3.9 19:34:26 10° WSW 19:35:23 18° WSW 19:35:23 18° WSW visible
